sat.trackr.live / text

‹ back to catalog

SKYSAT-C1

NORAD 41601 · 2016-040C

PAYLOAD ACTIVE UNKNOWN

§ Identity

Operator
Country
US
Launch date
2016-06-22
Launch site
SRILR
Launch vehicle
Mass (kg)
RCS (m²)
0.38

Purposes: earth_obs

External: N2YO · Heavens-Above · Gunter

§ Orbital elements

Epoch: 2026-05-25T02:10:26.552640Z

Period
93.76 min
Inclination
96.9583°
Eccentricity
0.0004455
Mean motion
15.35849586 rev/d
Perigee alt
455.4 km
Apogee alt
461.4 km
Semi-major
6,836.5 km
B*
2.4157e-4
RAAN
178.0678°
Arg perigee
103.9942°
Mean anomaly
256.1798°
Rev number
55,432

§ Raw data

SKYSAT-C11 41601U 16040C   26145.09058510  .00008356  00000+0  24157-3 0  99922 41601  96.9583 178.0678 0004455 103.9942 256.1798 15.35849586554328

JSON: /api/v1/satellites/41601 · /tle

For live sub-satellite position, see the globe view (requires WebGL).

§ Visibility from observer

Set your observer location to see the next 7 days of passes ≥ 10°. The values pass through the URL so the page stays shareable.

No JS? Fill the form by hand. The geolocation button needs JavaScript.